Weather History for Latacunga, Ecuador

Change the Weather History Date:

Wednesday, November 21, 2012

  Actual Average (SEQU) Record (SEQU)
Temperature  
Mean Temperature 58 °F -  
Max Temperature 70 °F 65 °F 77 °F (2008)
Min Temperature 47 °F 47 °F 39 °F (2011)
Degree Days  
Heating Degree Days 6    
Growing Degree Days 8 (Base 50)    
Moisture  
Dew Point 50 °F    
Average Humidity 73    
Maximum Humidity 94    
Minimum Humidity 48    
Precipitation  
Precipitation 0.08 in - - ()
Sea Level Pressure  
Sea Level Pressure 30.34 in    
Wind  
Wind Speed 6 mph ()    
Max Wind Speed 18 mph    
Max Gust Speed -    
Visibility 7.4 miles    
Events Rain    
Averages and records for this station are not official NWS values.
T = Trace of Precipitation, MM = Missing Value Source: Averaged Metar Reports

Daily Weather History Graph

Daily Weather History Graph

Search for Another Location

Airport:

Trip Planner

Search our weather history database for the weather conditions in past years. The results will help you decide how hot, cold, wet, or windy it might be!

Date:

Astronomy

Nov. 21, 2012 Rise Set
Actual Time 5:55 AM ECT 6:05 PM ECT
Civil Twilight 5:33 AM ECT 6:27 PM ECT
Nautical Twilight 5:07 AM ECT 6:53 PM ECT
Astronomical Twilight 4:42 AM ECT 7:18 PM ECT
Moon 1:02 PM ECT (11/21) 12:39 AM ECT (11/21)
Length of Visible Light 12h 53m
Length of Day
12h 09m
First Quarter, 61% of the Moon is Illuminated
Nov 21
First Quarter
Nov 28
Full
Dec 6
Last Quarter
Dec 13
New
Dec 20
First Quarter

Hourly Weather History & Observations

Time (ECT) Temp. Dew Point Humidity Pressure Visibility Wind Dir Wind Speed Gust Speed Precip Events Conditions
12:00 AM 53.6 °F 51.8 °F 94% 30.42 in 6.2 mi South 4.6 mph - N/A   Scattered Clouds
1:00 AM 53.6 °F 51.8 °F 94% 30.39 in 6.2 mi NNE 2.3 mph - N/A   Scattered Clouds
3:00 AM 51.8 °F 50.0 °F 94% 30.36 in 6.2 mi ENE 5.8 mph - N/A   Scattered Clouds
6:00 AM 48.2 °F 44.6 °F 87% 30.39 in 6.2 mi NNE 5.8 mph - N/A   Scattered Clouds
7:00 AM 51 °F 47 °F 80% 29.94 in 9 mi NNE 3.5 mph - -   Scattered Clouds
7:00 AM 51.8 °F 46.4 °F 82% 30.39 in 6.2 mi NNE 4.6 mph - N/A   Scattered Clouds
8:00 AM 57.2 °F 50.0 °F 77% 30.42 in 6.2 mi Calm Calm - N/A   Scattered Clouds
9:00 AM 60.8 °F 50.0 °F 68% 30.42 in 6.2 mi South 10.4 mph - N/A   Scattered Clouds
10:00 AM 62 °F 50 °F 56%  in 19 mi SSE 9.2 mph - -   Mostly Cloudy
10:00 AM 62.6 °F 50.0 °F 63% 30.39 in 6.2 mi SSE 9.2 mph - N/A   Mostly Cloudy
11:00 AM 62.6 °F 50.0 °F 63% 30.39 in 6.2 mi South 13.8 mph - N/A   Mostly Cloudy
12:00 PM 60.8 °F 50.0 °F 68% 30.36 in 6.2 mi South 13.8 mph - N/A   Mostly Cloudy
1:00 PM 66 °F 51 °F 48%  in 19 mi 18.4 mph - -   Partly Cloudy
1:00 PM 66.2 °F 50.0 °F 56% 30.33 in 6.2 mi SSW 18.4 mph - N/A   Scattered Clouds
2:00 PM 68.0 °F 48.2 °F 49% 30.30 in 6.2 mi South 13.8 mph - N/A   Mostly Cloudy
3:00 PM 64.4 °F 48.2 °F 56% 30.30 in 6.2 mi East 9.2 mph - N/A   Mostly Cloudy
4:00 PM 62 °F 51 °F 57%  in 12 mi ENE 6.9 mph - -   Mostly Cloudy
4:00 PM 62.6 °F 50.0 °F 63% 30.27 in 6.2 mi ENE 6.9 mph - N/A   Mostly Cloudy
5:00 PM 62.6 °F 48.2 °F 59% 30.30 in 6.2 mi NNW 9.2 mph - N/A   Mostly Cloudy
6:00 PM 57.2 °F 53.6 °F 88% 30.33 in 3.7 mi NE 11.5 mph - N/A Rain Light Rain
7:00 PM 56 °F 53 °F 87%  in 5 mi North 5.8 mph - - Rain Light Rain
7:00 PM 55.4 °F 53.6 °F 94% 30.36 in 5.0 mi North 5.8 mph - N/A Rain Light Rain
8:00 PM 55.4 °F 51.8 °F 88% 30.39 in 6.2 mi Calm Calm - N/A   Scattered Clouds
9:00 PM 55.4 °F 50.0 °F 82% 30.42 in 6.2 mi Calm Calm - N/A   Scattered Clouds